Regional Weather Roundup
Issued by NWS Memphis, TN

Home | Current Version | Previous Version | Text Only | Print | Product List | Glossary On
Versions: 1 2 3 4 5 6 7 8 9 10 11 12 13 14 15 16 17 18 19 20 21 22 23 24 25 26 27 28 29 30 31 32 33 34 35 36 37 38 39 40 41 42 43 44 45 46 47 48 49 50
000
ASUS44 KMEG 220310
RWRMEG
MEMPHIS CWA HOURLY WEATHER ROUNDUP
NATIONAL WEATHER SERVICE MEMPHIS TN
900 PM CST SUN DEC 21 2014

...WEST TENNESSEE...

CITY           SKY/WX    TMP DP  RH WIND       PRES   REMARKS
MEMPHIS INTL   PTCLDY    47  35  63 SE9       29.97F
NWS MEMPHIS      N/A     44 N/A N/A MISG        N/A
JACKSON        CLEAR     44  36  73 SE8       29.99F
LEXINGTON      CLEAR     37  34  87 SE3       30.00F
SAVANNAH       CLEAR     36  36 100 CALM      30.02S
DYERSBURG      CLOUDY    43  25  49 E6        30.00F
UNION CITY     CLOUDY    36  30  80 E3        29.98S
PARIS          CLEAR     37  28  70 E8        29.99F WCI  31
HUNTINGDON     CLEAR     35  28  76 E6        29.99F WCI  30


...EASTERN ARKANSAS...

CITY           SKY/WX    TMP DP  RH WIND       PRES   REMARKS
JONESBORO      MOCLDY    44  37  76 E8        29.95F
WEST MEMPHIS   CLEAR     45  36  70 SE10      29.95F
BATESVILLE     MOCLDY    45  37  76 SE3       29.94F
NEWPORT        LGT RAIN  43  39  85 E6        29.96S FOG
WALNUT RIDGE   CLOUDY    43  37  81 NE6       29.95S
BLYTHEVILLE    CLOUDY    41  36  82 E8        29.98F
SEARCY         CLOUDY    48  37  65 CALM      29.95F
STUTTGART      MOCLDY    46  36  66 SE7       29.94F
PINE BLUFF     PTCLDY    43  38  82 E6        29.93F
MONTICELLO     CLEAR     42  37  82 CALM      29.94F


...NORTH MISSISSIPPI...

CITY           SKY/WX    TMP DP  RH WIND       PRES   REMARKS
TUPELO         PTCLDY    44  39  82 S5        30.02S
OXFORD         CLEAR     45  39  81 SE8       30.00F
OLIVE BRANCH   CLEAR     43  41  93 SE7       29.98F
TUNICA         CLEAR     45  37  76 E8        29.97S
CLARKSDALE     CLEAR     48  45  87 SE12      29.96F
CORINTH        PTCLDY    39  37  93 CALM      30.01S
GRENADA        CLEAR     45  43  93 CALM      29.98F
GREENWOOD      CLEAR     49  45  86 SE9       29.97F
COLUMBUS       CLOUDY    47  46  94 SE2       30.03F
STARKVILLE     CLOUDY    46  45  93 SE5       30.03S FOG
GOLDEN TRIANGL CLOUDY    48  45  87 SE7       30.02F


...SOUTHEAST MISSOURI...

CITY           SKY/WX    TMP DP  RH WIND       PRES   REMARKS
WEST PLAINS    CLOUDY    38  32  79 E6        29.93F WCI  33
POPLAR BLUFF   CLOUDY    42  35  76 E6        29.97F
CAPE GIRARDEAU CLOUDY    39  34  82 CALM      30.01F


...NORTHWEST ALABAMA...

CITY           SKY/WX    TMP DP  RH WIND       PRES   REMARKS
MUSCLE SHOALS  CLOUDY    45  39  79 SE3       30.04F


...MIDDLE TENNESSEE...

CITY           SKY/WX    TMP DP  RH WIND       PRES   REMARKS
NASHVILLE      PTCLDY    45  37  73 SE5       30.05S
CLARKSVILLE    MOCLDY    41  32  70 E7        30.03F
COLUMBIA       CLEAR     43  43 100 CALM      30.02S


...WESTERN KENTUCKY...

CITY           SKY/WX    TMP DP  RH WIND       PRES   REMARKS
PADUCAH        MOCLDY    36  29  75 E6        30.01F WCI  31
FORT CAMPBELL  CLEAR     40  31  70 E5        30.03F


...CENTRAL ARKANSAS...

CITY           SKY/WX    TMP DP  RH WIND       PRES   REMARKS
LITTLE ROCK    PTCLDY    45  35  68 SE5       29.93F


SKY/WX REPORTED AS FAIR MEANS FEW OR NO CLOUDS BELOW
12 THOUSAND FEET.




USA.gov is the U.S. government's official web portal to all federal, state and local government web resources and services.